{"data":{"norad_id":28702,"epoch":"2026-05-25T03:03:45.815040Z","epoch_age_seconds":63255,"freshness":"FRESH","line1":"1 28702U 05022A   26145.12761360 -.00000202  00000+0  00000+0 0  9995","line2":"2 28702   3.2420  79.2136 0003062 345.6013 196.7294  1.00268037 51745","mean_motion":1.00268037,"eccentricity":0.0003062,"inclination_deg":3.242,"raan_deg":79.2136,"arg_perigee_deg":345.6013,"mean_anomaly_deg":196.7294,"bstar":0,"rev_number":5174,"period_min":1436.1505850563,"perigee_km":35774.734531715,"apogee_km":35800.556857037,"semimajor_km":42165.782694376,"source":"CELESTRAK","updated_at":"2026-05-25T13:38:14.324862Z"}}